[[{"header":{"parameterUnit":"m.s-1","parameterCategory":1,"la1":30.2991,"la2":30.254,"lo1":-89.0895,"lo2":-89.0444,"dy":0.0017,"dx":0.0017,"nx":28,"ny":28,"refTime":"2025-04-03T09:00:00:Z","depth":0,"parameterNumber":2,"parameterNumberName":"U-component_of_WINDS"},"data":[0,0,0,0,0,0,0,0,0,0,0,0,0,0,0,0,0,0,0,0,0,0,0,0,0,0,0,0,0,0,0,0,0,0,0,0,0,0,0,0,0,0,0,0,0,0,0,0,0,0,0,0,0,0,0,0,0,0,-4.014,-4.0141,0,-4.0265,-4.0267,-4.0268,-4.0299,-4.0298,-4.0297,-4.0296,-4.0426,-4.043,-4.0434,0,0,0,0,0,0,0,0,0,0,0,0,0,-3.9928,-3.9932,-4.014,-4.0141,-4.0143,-4.0265,-4.0267,-4.0268,-4.0299,-4.0298,-4.0297,-4.0296,-4.0425,-4.043,-4.0435,0,0,0,0,0,0,0,0,0,0,0,0,0,-4.0033,-3.9933,-4.0139,-4.0173,-4.0177,-4.0265,-4.0267,-4.0269,-4.0299,-4.0298,-4.0297,-4.0296,-4.0423,-4.0429,-4.0435,-4.0499,0,0,-4.0455,-4.0457,0,0,0,0,0,0,0,0,-4.0027,-4.0041,-4.0166,-4.0171,-4.0175,-4.0265,-4.024,-4.0346,-4.03,-4.0253,-4.0296,-4.0295,-4.0374,-4.0384,-4.041,-4.0505,-4.0511,-4.0455,-4.0459,-4.0462,-4.0464,0,0,0,0,0,0,0,-4.002,-4.0036,-4.0189,-4.0168,-4.0174,-4.0182,-4.0196,-4.026,-4.0319,-4.0257,-4.0259,-4.0274,-4.0376,-4.0404,-4.0413,-4.0513,-4.0455,-4.0461,-4.0465,-4.0467,-4.0667,-4.0668,0,0,0,0,0,0,-4.0007,-4.003,-4.0185,-4.0193,-4.0097,-4.0187,-4.0202,-4.0238,-4.0318,-4.0329,-4.0275,-4.0275,-4.0394,-4.0406,-4.0418,-4.0497,-4.0462,-4.0468,-4.0471,-4.0665,-4.0667,-4.0669,0,0,0,0,0,0,-4.0002,-4.002,-4.018,-4.0112,-4.0133,-4.0192,-4.0231,-4.0241,-4.0269,-4.0331,-4.0342,-4.0292,-4.0393,-4.0409,-4.0479,-4.0502,-4.0471,-4.0476,-4.0663,-4.0666,-4.0668,-4.0657,0,0,0,0,0,0,-3.9996,-4.0018,-4.0043,-4.0112,-4.0137,-4.0238,-4.0233,-4.0244,-4.0279,-4.0281,-4.0351,-4.0361,-4.0394,-4.0469,-4.0485,-4.051,-4.0481,-4.0661,-4.0664,-4.0667,-4.0655,-4.0658,-4.0661,0,0,0,0,0,-3.9988,-4.0035,-4.0044,-4.0062,-4.0168,-4.0239,-4.0253,-4.0289,-4.0281,-4.0306,-4.0347,-4.0359,-4.0498,-4.0476,-4.0494,-4.0522,-4.066,-4.0664,-4.0667,-4.0654,-4.0658,-4.0661,0,0,0,0,0,0,-3.9966,-4.0044,-4.0055,-4.0126,-4.0176,-4.0244,-4.0277,-4.0292,-4.0345,-4.0344,-4.0387,-4.0402,-4.0469,-4.0503,-4.0477,-4.0588,-4.0579,-4.0586,-4.0563,-4.0567,-4.057,-4.0559,-4.0487,0,0,0,0,0,-3.997,-4.002,-4.0086,-4.0142,-4.0167,-4.0217,-4.025,-4.0273,-4.0327,-4.0348,-4.0394,-4.0445,-4.0501,-4.0536,-4.0591,-4.0661,-4.0677,-4.0689,-4.0692,-4.0694,-4.0699,-4.0739,-4.0745,-4.068,-4.068,-4.068,0,0,-3.9977,-4.0026,-4.0055,-4.0139,-4.018,-4.0232,-4.0235,-4.029,-4.0329,-4.0357,-4.0424,-4.046,-4.0521,-4.0591,-4.0624,-4.0621,-4.0721,-4.0699,-4.07,-4.0704,-4.0743,-4.0749,-4.0755,-4.0682,-4.0682,-4.0681,0,0,-4.0016,-4.0059,-4.011,-4.0151,-4.0214,-4.0248,-4.026,-4.0327,-4.0352,-4.0421,-4.0442,-4.049,-4.0585,-4.0627,-4.0661,-4.0718,-4.0732,-4.0735,-4.0749,-4.0788,-4.0793,-4.0797,-4.0817,-4.0823,-4.0741,-4.0741,-4.0741,0,-4.0017,-4.0096,-4.0134,-4.0188,-4.0224,-4.0252,-4.0304,-4.0343,-4.042,-4.0445,-4.0441,-4.056,-4.0603,-4.0683,-4.0697,-4.0724,-4.074,-4.0726,-4.0789,-4.0794,-4.0799,-4.0818,-4.0825,-4.074,-4.074,-4.074,-4.074,0,-4.0093,-4.0148,-4.0182,-4.0255,-4.0296,-4.0348,-4.0395,-4.0431,-4.0452,-4.0486,-4.0557,-4.061,-4.0675,-4.0697,-4.0717,-4.078,-4.0776,-4.078,-4.0772,-4.0804,-4.0823,-4.0831,-4.074,-4.074,-4.074,-4.074,0,0,-4.012,-4.0215,-4.0227,-4.026,-4.0333,-4.0376,-4.043,-4.0494,-4.0524,-4.0578,-4.0624,-4.0704,-4.0708,-4.0747,-4.0773,-4.0807,-4.0848,-4.0807,-4.0809,-4.0811,-4.092,-4.0915,-4.0923,-4.0858,-4.086,-4.0861,-4.0914,0,-4.0167,-4.0264,-4.0301,-4.038,-4.0431,-4.046,-4.0507,-4.0557,-4.0591,-4.064,-4.0678,-4.0734,-4.0736,-4.0759,-4.0794,-4.0835,-4.087,-4.0833,-4.0902,-4.0904,-4.0883,-4.0933,-4.0928,-4.0975,-4.0922,-4.0923,-4.0924,0,-4.0234,-4.0287,-4.0372,-4.0438,-4.0461,-4.0503,-4.0564,-4.0611,-4.0668,-4.0691,-4.0735,-4.0759,-4.0818,-4.0808,-4.0889,-4.0863,-4.0894,-4.0919,-4.0922,-4.0928,-4.0914,-4.0938,-4.0991,-4.0997,-4.0936,-4.0935,-4.0934,0,-4.0243,-4.0337,-4.0399,-4.0427,-4.0507,-4.0535,-4.057,-4.0626,-4.0663,-4.0717,-4.0741,-4.0802,-4.0835,-4.0882,-4.0923,-4.0912,-4.1001,-4.0994,-4.1021,-4.102,-4.1036,-4.1034,-4.1093,-4.106,-4.106,-4.1059,-4.1059,0,-4.029,-4.0341,-4.0404,-4.0442,-4.05,-4.0542,-4.0598,-4.0635,-4.0685,-4.0732,-4.0761,-4.0804,-4.0856,-4.0906,-4.0938,-4.1001,-4.1016,-4.1036,-4.1043,-4.1032,-4.1029,-4.1051,-4.1048,-4.1061,-4.1061,-4.1061,-4.106,0,-4.0309,-4.0354,-4.0423,-4.0493,-4.0512,-4.0551,-4.0611,-4.065,-4.0686,-4.0744,-4.0761,-4.0818,-4.0878,-4.0924,-4.1003,-4.1025,-4.109,-4.11,-4.107,-4.1074,-4.1098,-4.1094,-4.1171,-4.1183,-4.1143,-4.1143,-4.1144,0,-4.0335,-4.0374,-4.0448,-4.0481,-4.0515,-4.0568,-4.0605,-4.065,-4.0687,-4.0756,-4.0787,-4.0849,-4.0901,-4.0997,-4.1046,-4.1106,-4.1116,-4.1139,-4.1125,-4.1113,-4.1115,-4.1111,-4.1115,-4.114,-4.114,-4.114,-4.114,0,-4.0376,-4.0397,-4.0449,-4.0509,-4.0552,-4.0602,-4.0652,-4.0678,-4.0732,-4.0773,-4.0834,-4.0875,-4.0955,-4.1017,-4.1083,-4.1119,-4.1139,-4.1145,-4.1154,-4.1141,-4.1122,-4.1132,-4.1073,-4.1142,-4.1142,-4.1142,-4.1142,-4.1142,-4.0399,-4.0435,-4.0492,-4.055,-4.0592,-4.0639,-4.0678,-4.072,-4.0772,-4.084,-4.0864,-4.0928,-4.0986,-4.1076,-4.1113,-4.1164,-4.1165,-4.1178,-4.1181,-4.1184,-4.1182,-4.1116,-4.1177,-4.1177,-4.1177,-4.1177,-4.1177,0,-4.044,-4.0479,-4.0531,-4.06,-4.0646,-4.0661,-4.0717,-4.0754,-4.081,-4.0862,-4.0913,-4.0984,-4.1045,-4.1099,-4.1162,-4.1192,-4.1203,-4.1207,-4.1205,-4.1213,-4.1179,-4.1164,-4.1198,-4.1198,-4.1198,-4.1198,-4.1198,-4.1198,-4.0467,-4.0528,-4.0556,-4.0639,-4.0678,-4.074,-4.0771,-4.0815,-4.0857,-4.0935,-4.0985,-4.102,-4.1073,-4.1141,-4.1197,-4.1212,-4.1233,-4.1235,-4.1251,-4.1218,-4.1215,-4.1212,-4.1198,-4.1239,-4.1239,-4.1281,-4.1281,-4.1281]},{"header":{"parameterUnit":"m.s-1","parameterCategory":1,"la1":30.2991,"la2":30.254,"lo1":-89.0895,"lo2":-89.0444,"dy":0.0017,"dx":0.0017,"nx":28,"ny":28,"refTime":"2025-04-03T09:00:00:Z","depth":0,"parameterNumber":3,"parameterNumberName":"V-component_of_WINDS"},"data":[0,0,0,0,0,0,0,0,0,0,0,0,0,0,0,0,0,0,0,0,0,0,0,0,0,0,0,0,0,0,0,0,0,0,0,0,0,0,0,0,0,0,0,0,0,0,0,0,0,0,0,0,0,0,0,0,0,0,4.0829,4.0829,0,4.0888,4.0889,4.089,4.0923,4.0923,4.0923,4.0923,4.0983,4.0985,4.0986,0,0,0,0,0,0,0,0,0,0,0,0,0,4.0746,4.0747,4.0829,4.0829,4.083,4.0888,4.0889,4.089,4.0923,4.0923,4.0923,4.0923,4.0983,4.0984,4.0986,0,0,0,0,0,0,0,0,0,0,0,0,0,4.0791,4.0748,4.0829,4.0854,4.0856,4.0888,4.0889,4.089,4.0923,4.0923,4.0923,4.0923,4.0982,4.0984,4.0987,4.0997,0,0,4.0993,4.0994,0,0,0,0,0,0,0,0,4.0789,4.0794,4.0849,4.0852,4.0855,4.0898,4.0882,4.0926,4.0923,4.0898,4.0923,4.0923,4.0955,4.0959,4.097,4.1,4.1003,4.0994,4.0995,4.0996,4.0997,0,0,0,0,0,0,0,4.0786,4.0792,4.0852,4.085,4.0854,4.0863,4.0869,4.089,4.0924,4.09,4.0902,4.0909,4.0956,4.0968,4.0972,4.1004,4.0994,4.0996,4.0997,4.0998,4.105,4.105,0,0,0,0,0,0,4.0778,4.0789,4.085,4.0854,4.0822,4.0864,4.0871,4.0884,4.0924,4.0931,4.0909,4.091,4.0964,4.0969,4.0974,4.0992,4.0996,4.0998,4.0999,4.105,4.105,4.105,0,0,0,0,0,0,4.0776,4.0783,4.0848,4.0822,4.0831,4.0865,4.0879,4.0885,4.0897,4.0931,4.0938,4.0914,4.0964,4.0971,4.0992,4.0995,4.0999,4.1001,4.105,4.105,4.105,4.1026,0,0,0,0,0,0,4.0774,4.0782,4.0786,4.0822,4.0832,4.0864,4.0879,4.0886,4.0901,4.0903,4.0938,4.0944,4.0965,4.0989,4.0995,4.0998,4.1003,4.105,4.105,4.105,4.1027,4.1026,4.1024,0,0,0,0,0,4.0771,4.0776,4.0786,4.0793,4.0838,4.0864,4.087,4.0895,4.0901,4.0905,4.0928,4.0943,4.0993,4.0991,4.0997,4.1001,4.105,4.105,4.105,4.1028,4.1026,4.1024,0,0,0,0,0,0,4.0738,4.0781,4.0793,4.0809,4.0833,4.087,4.0876,4.0891,4.0914,4.0915,4.0945,4.0952,4.0972,4.0989,4.0985,4.1016,4.1023,4.1025,4.1004,4.1003,4.1001,4.0997,4.1005,0,0,0,0,0,4.0733,4.0751,4.0787,4.0799,4.081,4.0841,4.0854,4.0871,4.0897,4.0907,4.0931,4.0955,4.0977,4.0991,4.1013,4.103,4.104,4.1036,4.1035,4.1034,4.1035,4.1049,4.1049,4.1051,4.1051,4.105,0,0,4.0722,4.0748,4.0757,4.0793,4.0813,4.0833,4.0849,4.0868,4.0883,4.0909,4.0932,4.0951,4.098,4.1001,4.1011,4.1016,4.1037,4.1034,4.1032,4.1034,4.1049,4.1049,4.1049,4.1051,4.1051,4.1051,0,0,4.0713,4.0733,4.0746,4.0767,4.0799,4.082,4.0823,4.0859,4.0873,4.0896,4.0918,4.0936,4.0972,4.0994,4.1009,4.1012,4.1028,4.1019,4.1011,4.1025,4.1025,4.1025,4.1028,4.1029,4.1019,4.1019,4.1019,0,4.0695,4.0724,4.0751,4.077,4.0786,4.0813,4.0828,4.0847,4.0883,4.0895,4.0899,4.0948,4.097,4.0997,4.0999,4.1009,4.1016,4.1015,4.1022,4.1023,4.1023,4.1027,4.1028,4.1018,4.1018,4.1018,4.1019,0,4.0703,4.0723,4.073,4.0766,4.0784,4.08,4.0831,4.0846,4.0862,4.0884,4.0909,4.0936,4.0966,4.0974,4.0989,4.1005,4.1007,4.1017,4.1025,4.1022,4.1026,4.1027,4.1017,4.1017,4.1017,4.1018,0,0,4.0671,4.0726,4.0728,4.0746,4.0785,4.0801,4.0821,4.085,4.0864,4.0889,4.0907,4.0939,4.095,4.0967,4.0986,4.0998,4.1002,4.1007,4.1008,4.1007,4.1024,4.1018,4.1019,4.1013,4.1013,4.1013,4.1023,0,4.0669,4.0704,4.0731,4.0757,4.0777,4.0805,4.0822,4.0849,4.087,4.0891,4.0915,4.0938,4.0949,4.0961,4.0973,4.0999,4.1006,4.0998,4.1031,4.1032,4.1024,4.1021,4.1013,4.102,4.1024,4.1025,4.1025,0,4.0669,4.0696,4.0724,4.0764,4.0774,4.0788,4.082,4.084,4.0871,4.0886,4.0908,4.0928,4.0952,4.0958,4.0992,4.0987,4.1002,4.1017,4.1018,4.1022,4.1029,4.1027,4.1023,4.1024,4.1027,4.1027,4.1027,0,4.0647,4.0689,4.0712,4.0727,4.0773,4.0784,4.0804,4.0836,4.0853,4.0881,4.0894,4.0923,4.094,4.0963,4.0992,4.0994,4.1025,4.1032,4.1039,4.1039,4.1044,4.1044,4.1044,4.1052,4.1052,4.1052,4.1052,0,4.0641,4.0658,4.0703,4.0718,4.0738,4.077,4.079,4.0812,4.0841,4.0862,4.0887,4.0906,4.0942,4.0966,4.0989,4.1016,4.1022,4.1036,4.1042,4.1035,4.1033,4.1046,4.1046,4.1052,4.1052,4.1052,4.1052,0,4.0619,4.065,4.0678,4.0721,4.0732,4.0745,4.0783,4.0799,4.0823,4.0849,4.0857,4.0895,4.0925,4.0956,4.0996,4.1011,4.1038,4.1045,4.1027,4.1031,4.1037,4.1036,4.1046,4.105,4.1054,4.1054,4.1053,0,4.0614,4.0628,4.0673,4.0689,4.0709,4.0734,4.0753,4.0786,4.0805,4.0844,4.0856,4.0888,4.0916,4.0962,4.0994,4.1026,4.1035,4.1037,4.104,4.1033,4.1038,4.1037,4.104,4.1035,4.1035,4.1035,4.1035,0,4.0602,4.0618,4.0644,4.0677,4.0699,4.0726,4.0754,4.0766,4.0805,4.0825,4.0857,4.0879,4.0921,4.0954,4.099,4.1012,4.1031,4.1034,4.1038,4.103,4.102,4.1028,4.1025,4.1033,4.1033,4.1034,4.1034,4.1034,4.0589,4.0604,4.064,4.0669,4.0695,4.0721,4.074,4.0768,4.0794,4.0832,4.085,4.0883,4.0918,4.0969,4.0991,4.1018,4.1023,4.1027,4.1029,4.103,4.1029,4.1015,4.1024,4.1024,4.1024,4.1025,4.1025,0,4.0581,4.0606,4.0633,4.0673,4.0697,4.0713,4.0747,4.0766,4.0794,4.0826,4.0853,4.0891,4.0924,4.096,4.0995,4.101,4.102,4.1018,4.1018,4.1024,4.1021,4.1016,4.101,4.101,4.101,4.101,4.101,4.101,4.0579,4.0607,4.0627,4.0669,4.0694,4.0726,4.0744,4.077,4.0796,4.0838,4.0865,4.0889,4.0923,4.0962,4.0994,4.1003,4.1016,4.1012,4.1025,4.1022,4.1023,4.1024,4.1019,4.1014,4.1014,4.1025,4.1025,4.1025]}]]